Regional Weather Roundup
Issued by NWS

Home | Current Version | Previous Version | Text Only | Print | Product List | Glossary On
Versions: 1 2 3 4 5 6 7 8 9 10 11 12 13 14 15 16 17 18 19 20 21 22 23 24 25 26 27 28 29 30 31 32 33 34 35 36 37 38 39 40 41 42 43 44 45 46 47 48 49 50
000
ASUS43 KLMK 241510
RWRKY
KENTUCKY REGIONAL WEATHER ROUNDUP
NATIONAL WEATHER SERVICE LOUISVILLE KY
1000 AM EST TUE JAN 24 2017

NOTE "FAIR" INDICATES FEW OR NO CLOUDS BELOW 12,000 FEET
WITH NO SIGNIFICANT WEATHER AND/OR OBSTRUCTIONS TO VISIBILITY.

KYZ001>023-026-027-061>063-070>075-241600-
WESTERN AND SOUTH CENTRAL KENTUCKY

CITY           SKY/WX    TMP DP  RH WIND       PRES   REMARKS
PADUCAH        PTSUNNY   42  33  70 E6        29.92F
HENDERSON      CLOUDY    41  30  65 CALM      29.94R
OWENSBORO      CLOUDY    41  34  76 NW3       29.95S
HOPKINSVILLE   CLOUDY    40  33  76 CALM      29.94S
BOWLING GREEN  CLOUDY    42  35  76 VRB3      29.95R
GLASGOW        CLOUDY    39  35  83 N3        29.94S
$$

KYZ024-025-028>034-038-045-046-053-241600-
NORTH CENTRAL KENTUCKY

CITY           SKY/WX    TMP DP  RH WIND       PRES   REMARKS
LOUISVILLE/SDF CLOUDY    44  34  67 W8        29.91R
LOUISVILLE/LOU CLOUDY    43  34  70 W8        29.91R
FORT KNOX      CLOUDY    40  33  75 NW6       29.91R
$$

KYZ035>037-039>044-047>052-055>060-089>105-241600-
NORTHEAST KENTUCKY

CITY           SKY/WX    TMP DP  RH WIND       PRES   REMARKS
LEXINGTON      CLOUDY    40  37  89 W10       29.88R WCI  33
COVINGTON      CLOUDY    41  39  93 W10       29.85R
FRANKFORT      CLOUDY    41  36  82 W7        29.88R
$$

KYZ054-064>069-076>088-106>120-241600-
SOUTHEAST KENTUCKY

CITY           SKY/WX    TMP DP  RH WIND       PRES   REMARKS
JACKSON        CLOUDY    40  38  93 W8        29.85R FOG     WCI  34
LONDON         CLOUDY    39  38  96 W12       29.89R WCI  32
SOMERSET       CLOUDY    37  37 100 W9        29.93R WCI  31
MIDDLESBORO    CLOUDY    41  38  90 W5        29.91R
MONTICELLO     CLOUDY    39  37  92 W12       29.94R WCI  32
$$





USA.gov is the U.S. government's official web portal to all federal, state and local government web resources and services.